Latest Weather Observations for Munglinup West

IDW60801

Issued at 11:05 am WST Friday 25 April 2014 (issued every 30 minutes, with the page automatically refreshed every 10 minutes)

About weather observations | Map of weather stations | Latest weather observations for WA | Other Formats
Station Details ID: 012044 Name: MUNGLINUP WEST Lat: -33.55 Lon: 120.70 Height: 220.0 m
Data from the previous 72 hours. | See also: Recent months at Munglinup West
Date/Time
WST
Temp
°C
App
Temp
°C
Dew
Point
Rel
Hum
%
Delta-T
°C
Wind Press
QNH
hPa
Press
MSL
hPa
Rain
since 9 am
mm
Dir
 
Spd
km/h
Gust
km/h
Spd
kts
Gust
kts
25/11:00am 18.5 17.6 18.2 98 0.2 SSW 20 28 11 15 1012.3 1011.7 1.4
25/10:30am 18.4 18.5 18.4 100 0.0 SW 15 22 8 12 1011.9 - 1.4
25/10:00am 18.5 18.7 18.5 100 0.0 WSW 15 19 8 10 1011.5 1010.9 0.0
25/09:30am 17.9 17.4 17.9 100 0.0 WSW 17 22 9 12 1011.2 - 0.0
25/09:00am 17.6 17.8 17.6 100 0.0 WSW 13 19 7 10 1010.9 1010.3 1.2
25/08:30am 17.3 17.0 17.3 100 0.0 W 15 20 8 11 1011.2 - 1.2
25/08:00am 17.1 17.8 17.1 100 0.0 W 9 15 5 8 1010.8 1010.2 1.2
25/07:30am 16.5 16.6 16.5 100 0.0 WNW 11 13 6 7 1010.3 - 1.2
25/07:00am 16.4 16.8 16.4 100 0.0 NW 9 15 5 8 1009.7 1009.1 1.2
25/06:30am 16.6 17.5 16.6 100 0.0 W 7 9 4 5 1009.6 - 1.2
25/06:00am 16.4 16.0 16.1 98 0.2 WSW 13 17 7 9 1009.9 1009.4 1.2
25/05:30am 16.6 16.7 16.6 100 0.0 W 11 13 6 7 1009.5 - 1.0
25/05:00am 16.5 16.6 16.5 100 0.0 WNW 11 17 6 9 1009.0 1008.4 1.0
25/04:30am 17.2 17.6 17.2 100 0.0 WNW 11 17 6 9 1008.9 - 0.8
25/04:00am 17.3 18.1 17.3 100 0.0 WNW 9 13 5 7 1008.6 1008.0 0.4
25/03:30am 17.4 17.9 17.4 100 0.0 WNW 11 17 6 9 1008.5 - 0.4
25/03:00am 17.5 17.9 17.3 99 0.1 WNW 11 20 6 11 1008.3 1007.7 0.2
25/02:30am 16.9 16.6 16.4 97 0.3 WNW 13 17 7 9 1008.1 - 0.2
25/02:00am 16.7 16.6 16.1 96 0.4 WNW 11 22 6 12 1008.1 1007.5 0.2
25/01:30am 16.8 17.6 15.8 94 0.6 WSW 6 9 3 5 1007.8 - 0.2
25/01:00am 16.9 17.1 15.8 93 0.7 WSW 9 13 5 7 1007.8 1007.2 0.2
25/12:30am 17.0 16.5 15.0 88 1.2 W 11 19 6 10 1008.0 - 0.2
25/12:00am 16.9 17.6 14.4 85 1.4 WNW 4 6 2 3 1007.8 1007.2 0.2
 
Date/Time
WST
Temp
°C
App
Temp
°C
Dew
Point
Rel
Hum
%
Delta-T
°C
Wind Press
QNH
hPa
Press
MSL
hPa
Rain
since 9 am
mm
Dir
 
Spd
km/h
Gust
km/h
Spd
kts
Gust
kts
24/11:30pm 17.2 17.7 14.1 82 1.8 NW 4 7 2 4 1007.9 - 0.2
24/11:00pm 18.0 17.9 13.3 74 2.7 NNW 6 6 3 3 1008.1 1007.5 0.2
24/10:30pm 19.3 18.2 9.8 54 5.1 NW 6 9 3 5 1008.5 - 0.2
24/10:00pm 20.1 18.0 8.1 46 6.3 E 9 11 5 6 1008.4 1007.8 0.2
24/09:30pm 20.3 17.8 8.3 46 6.3 E 11 13 6 7 1008.4 - 0.2
24/09:00pm 21.1 18.2 8.0 43 6.9 ENE 13 15 7 8 1008.6 1008.0 0.2
24/08:30pm 22.1 19.1 7.9 40 7.5 ENE 13 17 7 9 1008.6 - 0.2
24/08:00pm 22.4 19.5 8.1 40 7.6 NE 13 17 7 9 1008.5 1007.9 0.2
24/07:30pm 22.6 19.7 8.0 39 7.7 ENE 13 17 7 9 1008.5 - 0.2
24/07:00pm 23.1 19.8 8.0 38 8.1 ENE 15 19 8 10 1008.5 1007.9 0.2
24/06:30pm 23.1 20.3 8.4 39 7.9 ENE 13 17 7 9 1008.9 - 0.2
24/06:00pm 22.8 20.4 8.5 40 7.7 ENE 11 13 6 7 1008.7 1008.1 0.2
24/05:30pm 23.4 21.3 8.3 38 8.1 E 9 13 5 7 1008.3 - 0.2
24/05:00pm 24.8 22.3 8.3 35 8.9 E 11 17 6 9 1008.0 1007.4 0.2
24/04:30pm 26.0 24.3 8.5 33 9.5 E 7 11 4 6 1007.9 - 0.2
24/04:00pm 26.5 24.1 8.5 32 9.9 ENE 11 15 6 8 1008.2 1007.6 0.2
24/03:30pm 26.7 23.5 8.6 32 9.9 ENE 15 22 8 12 1008.2 - 0.2
24/03:00pm 27.7 24.5 8.6 30 10.6 NE 15 24 8 13 1008.5 1007.9 0.2
24/02:30pm 26.6 23.1 8.6 32 9.9 NE 17 28 9 15 1008.8 - 0.2
24/02:00pm 26.6 23.5 9.0 33 9.7 NE 15 20 8 11 1009.1 1008.5 0.2
24/01:30pm 25.4 21.7 9.3 36 8.9 NE 19 26 10 14 1009.4 - 0.2
24/01:00pm 25.6 22.2 9.0 35 9.1 NNE 17 24 9 13 1010.3 1009.7 0.2
24/12:30pm 25.7 22.4 9.5 36 9.0 NE 17 26 9 14 1010.9 - 0.2
24/12:00pm 25.1 20.8 9.4 37 8.7 NNE 22 32 12 17 1011.7 1011.1 0.2
24/11:30am 24.6 21.1 10.8 42 7.8 NE 20 33 11 18 1012.5 - 0.2
24/11:00am 22.1 18.2 10.9 49 6.2 NE 22 33 12 18 1013.3 1012.7 0.0
24/10:30am 20.3 15.7 11.2 56 5.1 NE 26 33 14 18 1013.9 - 0.0
24/10:00am 19.7 14.8 11.2 58 4.7 ENE 28 37 15 20 1014.3 1013.8 0.0
24/09:30am 17.7 13.4 11.9 69 3.2 NE 26 37 14 20 1015.1 - 0.0
24/09:00am 16.9 12.7 13.6 81 1.9 ENE 28 37 15 20 1015.6 1015.0 0.0
24/08:30am 15.0 12.0 13.7 92 0.7 ENE 22 33 12 18 1016.0 - 0.0
24/08:00am 14.0 11.4 13.8 99 0.1 ENE 20 26 11 14 1016.2 1015.6 0.0
24/07:30am 12.5 10.1 12.5 100 0.0 ENE 17 26 9 14 1016.2 - 0.0
24/07:00am 11.8 9.1 11.8 100 0.0 ENE 17 22 9 12 1016.2 1015.6 0.0
24/06:30am 11.6 8.5 11.6 100 0.0 ENE 19 24 10 13 1016.3 - 0.0
24/06:00am 11.6 8.5 11.6 100 0.0 NE 19 24 10 13 1016.1 1015.5 0.0
24/05:30am 11.2 8.4 11.2 100 0.0 ENE 17 22 9 12 1016.1 - 0.0
24/05:00am 11.1 8.6 11.1 100 0.0 NE 15 19 8 10 1016.3 1015.7 0.0
24/04:30am 11.2 8.7 11.2 100 0.0 NE 15 19 8 10 1016.4 - 0.0
24/04:00am 11.0 8.9 11.0 100 0.0 NE 13 17 7 9 1016.4 1015.8 0.0
24/03:30am 11.0 8.9 11.0 100 0.0 NE 13 17 7 9 1016.5 - 0.0
24/03:00am 10.9 8.3 10.7 99 0.1 NE 15 19 8 10 1016.6 1016.0 0.0
24/02:30am 11.2 8.7 11.0 99 0.1 NE 15 19 8 10 1016.8 - 0.0
24/02:00am 11.0 8.8 10.8 99 0.1 NE 13 20 7 11 1017.2 1016.6 0.0
24/01:30am 10.7 8.4 10.4 98 0.2 ENE 13 17 7 9 1017.7 - 0.0
24/01:00am 11.2 9.0 10.9 98 0.2 ENE 13 19 7 10 1017.6 1017.0 0.0
24/12:30am 11.1 8.9 10.8 98 0.2 ENE 13 15 7 8 1017.6 - 0.0
24/12:00am 11.6 9.5 11.3 98 0.2 ENE 13 15 7 8 1017.9 1017.4 0.0
 
Date/Time
WST
Temp
°C
App
Temp
°C
Dew
Point
Rel
Hum
%
Delta-T
°C
Wind Press
QNH
hPa
Press
MSL
hPa
Rain
since 9 am
mm
Dir
 
Spd
km/h
Gust
km/h
Spd
kts
Gust
kts
23/11:30pm 11.4 9.6 10.9 97 0.3 ENE 11 13 6 7 1018.0 - 0.0
23/11:00pm 12.1 10.5 11.5 96 0.3 E 11 13 6 7 1018.0 1017.5 0.0
23/10:30pm 12.5 10.9 11.7 95 0.4 E 11 13 6 7 1018.0 - 0.0
23/10:00pm 12.6 11.0 11.7 94 0.5 E 11 13 6 7 1018.3 1017.8 0.0
23/09:30pm 13.0 11.1 11.9 93 0.6 ESE 13 17 7 9 1018.5 - 0.0
23/09:00pm 12.5 10.4 11.2 92 0.7 ESE 13 15 7 8 1018.4 1017.9 0.0
23/08:30pm 13.3 11.4 11.7 90 0.9 ESE 13 17 7 9 1018.5 - 0.0
23/08:00pm 13.3 11.4 11.7 90 0.9 ESE 13 15 7 8 1018.5 1018.0 0.0
23/07:30pm 13.4 11.7 11.3 87 1.1 ESE 11 15 6 8 1018.4 - 0.0
23/07:00pm 13.8 12.1 11.3 85 1.3 ESE 11 15 6 8 1018.1 1017.6 0.0
23/06:30pm 14.0 11.8 10.8 81 1.7 SE 13 15 7 8 1018.0 - 0.0
23/06:00pm 14.7 12.3 10.1 74 2.4 SE 13 15 7 8 1017.7 1017.1 0.0
23/05:30pm 16.0 13.6 10.1 68 3.1 SSE 13 17 7 9 1017.4 - 0.0
23/05:00pm 17.5 14.2 9.7 60 4.1 SSE 17 24 9 13 1017.2 1016.6 0.0
23/04:30pm 19.0 15.6 9.2 53 5.2 S 17 24 9 13 1017.0 - 0.0
23/04:00pm 19.8 16.7 8.8 49 5.8 S 15 22 8 12 1016.8 1016.2 0.0
23/03:30pm 21.3 18.0 9.5 47 6.4 S 17 26 9 14 1016.7 - 0.0
23/03:00pm 21.7 18.4 9.6 46 6.6 S 17 24 9 13 1016.5 1015.9 0.0
23/02:30pm 21.8 18.4 9.3 45 6.8 S 17 26 9 14 1016.6 - 0.0
23/02:00pm 22.4 19.7 10.2 46 6.7 S 15 24 8 13 1016.5 1015.9 0.0
23/01:30pm 22.5 20.4 8.2 40 7.6 S 9 19 5 10 1016.5 - 0.0
23/01:00pm 22.0 19.2 8.5 42 7.2 SSW 13 20 7 11 1016.8 1016.2 0.0
23/12:30pm 21.6 18.6 9.2 45 6.7 SSW 15 28 8 15 1017.1 - 0.0
23/12:00pm 21.5 19.6 10.6 50 6.0 SSW 11 22 6 12 1017.4 1016.8 0.0
23/11:30am 20.5 18.8 11.2 55 5.2 SW 11 19 6 10 1017.9 - 0.0
23/11:00am 19.8 18.8 11.0 57 4.8 S 7 15 4 8 1018.2 1017.7 0.0
23/10:30am 18.3 17.5 11.8 66 3.6 SW 7 13 4 7 1018.3 - 0.0
23/10:00am 18.5 17.9 12.3 67 3.5 S 7 13 4 7 1018.6 1018.1 0.0
23/09:30am 16.7 16.1 11.6 72 2.8 SW 6 9 3 5 1018.6 - 0.0
23/09:00am 16.0 15.9 10.7 71 2.8 W 2 6 1 3 1018.6 1018.1 0.0
23/08:30am 13.6 12.5 10.0 79 1.9 W 6 7 3 4 1018.5 - 0.0
23/08:00am 11.8 11.8 11.3 97 0.3 N 2 4 1 2 1018.1 1017.6 0.0
23/07:30am 8.9 7.5 8.8 99 0.0 NW 6 7 3 4 1018.2 - 0.0
23/07:00am 7.5 6.1 7.4 99 0.0 NNW 4 4 2 2 1017.8 1017.3 0.0
23/06:30am 6.4 4.4 6.1 98 0.1 NW 6 7 3 4 1017.9 - 0.0
23/06:00am 6.3 4.0 5.9 97 0.2 NNW 7 7 4 4 1017.7 1017.1 0.0
23/05:30am 6.8 5.2 6.2 96 0.3 W 4 6 2 3 1017.4 - 0.0
23/05:00am 6.3 4.9 5.6 95 0.3 W 2 4 1 2 1017.3 1016.7 0.0
23/04:30am 6.5 5.2 5.8 95 0.3 NNW 2 4 1 2 1017.1 - 0.0
23/04:00am 6.1 3.6 4.7 91 0.6 NNW 7 9 4 5 1016.9 1016.3 0.0
23/03:30am 7.2 5.0 5.3 88 0.9 S 6 7 3 4 1016.9 - 0.0
23/03:00am 8.0 6.0 6.3 89 0.8 ESE 6 6 3 3 1016.8 1016.2 0.0
23/02:30am 8.9 6.9 7.0 88 0.9 ESE 7 9 4 5 1016.7 - 0.0
23/02:00am 9.7 7.0 7.5 86 1.1 E 11 13 6 7 1017.1 1016.5 0.0
23/01:30am 9.5 6.8 7.4 87 1.0 E 11 11 6 6 1017.4 - 0.0
23/01:00am 10.4 8.3 8.3 87 1.0 ESE 9 9 5 5 1017.9 1017.4 0.0
23/12:30am 9.5 7.3 7.8 89 0.8 ESE 9 9 5 5 1017.9 - 0.0
23/12:00am 9.8 8.0 8.1 89 0.8 ESE 7 9 4 5 1018.0 1017.5 0.0
 
Date/Time
WST
Temp
°C
App
Temp
°C
Dew
Point
Rel
Hum
%
Delta-T
°C
Wind Press
QNH
hPa
Press
MSL
hPa
Rain
since 9 am
mm
Dir
 
Spd
km/h
Gust
km/h
Spd
kts
Gust
kts
22/11:30pm 9.9 8.7 8.0 88 0.9 ESE 4 6 2 3 1018.3 - 0.0
22/11:00pm 10.0 7.8 7.8 86 1.1 SW 9 11 5 6 1018.7 1018.2 0.0
22/10:30pm 11.3 9.1 9.4 88 1.0 ENE 11 15 6 8 1018.4 - 0.0
22/10:00pm 10.6 9.5 8.5 87 1.0 ENE 4 6 2 3 1018.7 1018.2 0.0
22/09:30pm 11.6 8.6 9.3 86 1.2 E 15 19 8 10 1018.5 - 0.0
22/09:00pm 11.8 8.8 9.4 85 1.2 E 15 19 8 10 1018.4 1017.9 0.0
22/08:30pm 12.0 8.5 8.8 81 1.6 E 17 19 9 10 1018.5 - 0.0
22/08:00pm 13.0 10.4 9.3 78 1.9 E 13 17 7 9 1018.7 1018.2 0.0
22/07:30pm 13.6 10.7 9.5 76 2.1 E 15 19 8 10 1018.6 - 0.0
22/07:00pm 13.7 10.9 8.7 72 2.5 ESE 13 15 7 8 1018.6 1018.1 0.0
22/06:30pm 14.3 11.2 8.7 69 2.9 ESE 15 19 8 10 1018.5 - 0.0
22/06:00pm 14.8 11.7 8.7 67 3.1 SE 15 17 8 9 1018.4 1017.9 0.0
22/05:30pm 16.2 13.1 8.7 61 3.9 SE 15 20 8 11 1018.2 - 0.0
22/05:00pm 18.0 14.1 8.8 55 4.8 SE 19 24 10 13 1018.2 1017.7 0.0
22/04:30pm 19.6 16.1 8.6 49 5.8 SSE 17 26 9 14 1018.3 - 0.0
22/04:00pm 22.3 20.1 7.7 39 7.7 W 9 19 5 10 1018.0 1017.5 0.0
22/03:30pm 22.7 19.4 4.7 31 9.0 W 11 20 6 11 1018.2 - 0.0
22/03:00pm 23.1 20.7 5.1 31 9.1 W 7 19 4 10 1018.3 1017.8 0.0
22/02:30pm 22.7 20.4 5.6 33 8.7 W 7 19 4 10 1018.4 - 0.0
22/02:00pm 22.3 20.0 5.7 34 8.4 WSW 7 17 4 9 1018.6 1018.1 0.0
22/01:30pm 21.2 18.9 5.9 37 7.7 W 7 11 4 6 1018.9 - 0.0
22/01:00pm 21.6 19.5 6.7 38 7.7 W 7 15 4 8 1019.3 1018.8 0.0
22/12:30pm 20.9 18.5 6.8 40 7.2 WNW 9 19 5 10 1019.9 - 0.0
22/12:00pm 20.7 18.3 7.0 41 7.0 NW 9 15 5 8 1020.5 1019.9 0.0
22/11:30am 20.2 17.5 7.2 43 6.7 WNW 11 19 6 10 1020.9 - 0.0

Other Formats:

Comma delimited format used in spreadsheet applications
http://www.bom.gov.au/fwo/IDW60801/IDW60801.95644.axf

JavaScript Object Notation format (JSON) in row-major order
http://www.bom.gov.au/fwo/IDW60801/IDW60801.95644.json